Погода в Холме

Поиск расширенной информации на нашем сайте:

Полезная информация:

Новости сайта



02.01.2020
Опубликован Долгосрочный прогноз погоды по городам России и ближнего зарубежья на январь 2020 года.
Карты: Прогноз на январь и февраль 2020 года, Сравнение прогнозируемой аномалии приземной температуры воздуха на январь 2020 года по разным моделям.




Погода в Холме - сегодня

Время (UTC), дата Ветер
(°,м/с) 
Видим.   Явления Облачность Т
(°С)
Тd
(°С)
f(%) Тe
(°С)
Pmin
(гПа)
dP
(гПа)
Po
(мм)
O2
(г/м3)
Тmin Tmax R s Состояние
почвы
12 29.11.20 020 (С) 10 км  в посл. час снег  10/10 500 м 
[Ns]
+0.5 -0.1 96 -2  1023.6  -1.1  761  306           
15 29.11.20 030 (СВ) 10 км  слаб. снег  10/10 570 м 
[Ns]
+0.6 +0.5 99 -1  1023  -0.6  761  306         
18 29.11.20 040 (СВ) 10 км  в посл. час снег  10/10 700 м 
[Ns]
+0.7 +0.6 99 -1  1022.4  -0.6  760  305    +0.8     
21 29.11.20 050 (СВ) 20000 м  {снег}  10/10 960 м 
[Sc]
+0.5 +0.5 100 1022.3  -0.1  760  306           
00 30.11.20 080 (В) 20000 м  {ливн. осадки, снег}  8/3 600 м кучево-дожд., средняя 
[Cb cap|Ac trans]
+0.2 +0.2 100 +1  1022.7  0.4  760  306           
03 30.11.20 140 (ЮВ) 20000 м    10/10 800 м 
[Sc]
+0.6 +0.5 99 +1  1023.3  0.6  761  306  -0.2       
06 30.11.20 150 (ЮВ) 20000 м    4/0 средняя 
[Ac trans]
-0.9 -0.9 100 1023.7  0.3  761  308  -1    0.9  мокрый или
старый снег
10-40% 
09 30.11.20 110 (В) 20000 м    8/0 средняя 
[Ac lent]
+0.5 +0.1 97 +1  1023.4  -0.2  761  306           
12 30.11.20 120 (ЮВ) 20000 м    9/0 средняя 
[Ac trans]
+0.7 -0.3 93 1022.5  -0.9  760  306           
15 30.11.20 150 (ЮВ) 10 км  слаб. ливневой снег  9/8 720 м кучево-дожд., средняя 
[Cb cap|Ac trans]
+0 -1.1 92 -1  1022.8  0.3  760  307      0.0     
18 30.11.20 140 (ЮВ) 20000 м  {ливн. осадки}  9/0 средняя 
[Ac trans]
-0.1 -1.8 88 -1  1023  0.2  761  307    +1.2  0.0     
21 30.11.20 150 (ЮВ) 20000 м    10/10 630 м 
[Sc]
-0.1 -1.7 89 -2  1023.2  0.2  761  307           
00 01.12.20 170 (Ю) 20000 м    8/0 средняя 
[Ac trans]
-0.2 -1.2 93 -2  1023.7  0.5  761  307           
03 01.12.20 160 (Ю) 20000 м    9/0 средняя 
[Ac trans]
-0.2 -1.2 93 -2  1023.9  0.2  761  307  -0.2    0.0     
06 01.12.20 160 (Ю) 20000 м    9/0 средняя 
[Ac lent]
-0.4 -1.6 92 -2  1026.4  2.4  763  308  -0.4      мокрый или
старый снег
10-40% 
09 01.12.20 190 (Ю) 20000 м    9/3 600 м кучево-дожд., средняя 
[Cb cap|Ac trans]
+0.1 -2.1 85 -2  1028.1  1.7  764  308           
12 01.12.20 180 (Ю) 20000 м    10/10 660 м 
[Sc]
-0.1 -2.5 84 -2  1029.3  1.2  765  309           
15 01.12.20 170 (Ю) 20000 м    10/10 660 м 
[Sc]
-0.3 -2.5 85 -1  1031  1.7  766  309           
21 01.12.20 170 (Ю) 20000 м    10/10 700 м 
[Sc]
-0.6 -2.3 88 1033.2  0.9  768  310           
00 02.12.20 190 (Ю) 20000 м    9/9 660 м 
[Sc]
-0.7 -3.2 83 -2  1034.1  0.9  769  311           
03 02.12.20 180 (Ю) 20000 м    10/10 630 м 
[Sc]
-1.1 -3.1 86 -1  1034.5  0.3  769  311  -1.1         
06 02.12.20 160 (Ю) 20000 м    10/10 800 м 
[Sc]
-1.4 -3.3 87 -1  1034.8  0.3  769  312  -1.4      мокрый или
старый снег
10-40% 
09 02.12.20 130 (ЮВ) 20000 м    9/0 средняя 
[Ac trans]
-0.7 -3.4 82 1034.9  0.1  769  311           
12 02.12.20 100 (В) 20000 м    3/0 средняя 
[Ac trans]
-0.4 -4.2 75 1033.7  -1.1  768  311           
15 02.12.20 070 (В) 20000 м    8/0 средняя 
[Ac trans]
-2.4 -3.7 91 -2  1033  -0.8  768  313           
Время (UTC), дата Ветер
(°,м/с) 
Видим.   Явления Облачность Т
(°С)
Тd
(°С)
f(%) Тe
(°С)
Pmin
(гПа)
dP
(гПа)
Po
(мм)
O2
(г/м3)
Тmin Tmax R s Состояние
почвы

Для получения пояснительной информации подведите курсор к названию столбца.

ПОГОДА в Холме - архив

Всё, что Вы хотите узнать о погоде в Холме - удобно и подробно!

Выберите нужную дату (начиная с 1 января 2019* года) и нажмите кнопку "Найти".
Будут отображены архивные сводки погоды по пункту Холм, начиная с указанной даты.


Отображать данные в формате CSV (для использования в таблицах Excel)


Внимание! Наш архив погоды предназначен исключительно для личного некоммерческого использования в познавательных целях. Если Вам необходимы официальные справки о состоянии погоды (для производственных, юридических, коммерческих и т.п. целей), обращайтесь в органы Росгидромета.

*Примечание: данная дата относится к архиву по метеостанциям СССР (Россия, СНГ, Балтия).
Архив по метеостанциям Зарубежной Европы и Азии (кроме Китая) хранится 10 дней, по другим регионам земного шара (Китай, Африка, Америка, Австралия, Океания) - 1 день.

Холм - район местоположения метеостанции


Название, широта, долгота, высота метеостанции:
Холм 57.2°ш. 31.2°д. 71 м над ур. моря [Российская Федерация]

Дополнительная информация

В oтличие oт бoльшинства пoгoдных сайтoв мы публикуем пoдрoбную метеoинфoрмацию в детальнoм прoфессиoнальнoм фoрмате.

Характеристики температуры и влажнoсти вoздуха измеряются на высoте 2 м в тени вдали oт зданий и деревьев.
Скoрoсть ветра измеряется на высoте 10 м (на урoвне рoста челoвека скoрoсть ветра ниже в 1.5-2 раза). Если метеoстанция нахoдится в гoрoде или в лесу, тo скoрoсть ветра занижена на 2-4 м/с пo сравнению с oткрытым местoм. Скoрoсть ветра над акватoриями крупных рек и oзёр, а также на вершинах хoлмoв на 2-5 м/с выше, чем в oбычных услoвиях.
Атмoсфернoе давление в разных тoчках местнoсти мoжет значительнo oтличаться oт давления на метеoстанции, в зависимoсти oт услoвий рельефа (при пoдъёме на 10 м давление пoнижается примернo на 1 мм рт.ст.).